Tracking 28790 objects as of 18-Apr-2024
HD Live streaming from Space Station
objects crossing your sky now

COSMOS 1823 DEB

Track COSMOS 1823 DEB now!
10-day predictions


NORAD ID: 39814
Int'l Code: 1987-020EN
Perigee: 1,479.7 km
Apogee: 1,522.4 km
Inclination: 73.6 °
Period: 115.8 minutes
Semi major axis: 7872 km
RCS: 0.0157 m2 (small)
Launch date: February 20, 1987
Source: Commonwealth of Independent States (former USSR) (CIS)
Launch site: PLESETSK MISSILE AND SPACE COMPLEX (PKMTR)

Note: This is SATELLITE DEBRIS
Your satellite tracking list
Your tracking list is empty




NASA's NSSDC Master Catalog

Two Line Element Set (TLE):
1 39814U 87020EN  24108.38608361  .00000114  00000-0  94607-3 0  9997
2 39814  73.6171   4.6491 0027115 241.2520 118.5800 12.42999304447773
Source of the keplerian elements: AFSPC